SES-9

Last updated on Wed Sep 09 2026 00:03:01 GMT+0000 (Coordinated Universal Time)

1 41380U 16013A 26251.46657325 -.00000366 00000+0 00000+0 0 9995 2 41380 0.0090 192.2793 0001734 302.4980 129.0044 1.00270370 38271
UTC large
Height (km)
Speed (km/s)
/
Latitude / Longitude
Inclination (degrees)
Orbital Period (minutes)
Azimuth
Elevation
Range (km)
Doppler Factor

Next 0 passes for location: London (51.5072 / 0.1276)

No passes found over London.
SES-9